Flag Weather past 2 weeks in Modena, Italy

Now
61 °F

Clear.


Feels Like: 61 °F
Forecast: 38 / 61 °F
Wind: 2 mph from North

Location: Bologna / Borgo Panigale

Current Time: Oct 30, 2014 at 4:01:15 PM

Latest Report: Oct 30, 2014 at 3:20 PM


Visibility: 4 mi

Pressure: 30.24 "Hg

Humidity: 48%

Dew point: 41 °F

Location of ModenaLocation

Historic Weather in Modena — Graph

°F

Modena temperature yesterday

Maximum temperature yesterday: 59 °F (at 12:50 PM)
Minimum temperature yesterday: 41 °F (at 3:20 AM)
Average temperature yesterday: 49 °F

Past Weeks' High & Low Weather Summary

 TemperatureHumidityPressure
High77 °F (Oct 17, 2:50 PM)100% (Oct 15, 11:50 PM)30.36 "Hg (Oct 15, 11:50 PM)
Low41 °F (Oct 29, 3:20 AM)24% (Oct 22, 3:20 PM)29.53 "Hg (Oct 22, 1:50 AM)
Average60 °F74%30.06 "Hg
* Reported Oct 15 3:20 PM — Oct 30 2:50 PM, Modena, Weather by CustomWeather, © 2014

Note: Actual official high and low records may vary slightly from our data, if they occured in-between our weather recording intervals... More about our weather records

Advertising

Modena weather history for previous 24 hours

 ConditionsComfort  
Time TempWeatherWind HumidityBarometerVisibility
2:50 PM
Oct 30
61 °FClear.2 mph52%30.24 "Hg4 mi
2:20 PM61 °FClear.3 mph48%30.24 "Hg4 mi
1:50 PM61 °FClear.3 mph48%30.24 "Hg4 mi
1:20 PM59 °FClear.5 mph55%30.24 "Hg4 mi
12:50 PM59 °FClear.6 mph55%30.24 "Hg4 mi
12:20 PM57 °FClear.5 mph59%30.27 "Hg4 mi
11:50 AM57 °FClear.3 mph63%30.27 "Hg4 mi
11:20 AM55 °FClear.6 mph72%30.27 "Hg4 mi
10:50 AM54 °FClear.6 mph72%30.27 "Hg4 mi
10:20 AM52 °FClear.7 mph77%30.27 "Hg4 mi
9:50 AM50 °FClear.6 mph82%30.27 "Hg4 mi
9:20 AM48 °FClear.3 mph82%30.27 "Hg4 mi
8:50 AM46 °FFog.3 mph87%30.24 "Hg3 mi
8:20 AM45 °FFog.6 mph87%30.24 "Hg3 mi
7:50 AM43 °FFog.8 mph93%30.24 "Hg3 mi
7:20 AM43 °FFog.8 mph87%30.21 "Hg3 mi
6:50 AM41 °FClear.6 mph93%30.21 "Hg4 mi
6:20 AM41 °FClear.6 mph93%30.21 "Hg4 mi
5:50 AM41 °FClear.8 mph93%30.21 "Hg4 mi
5:20 AM41 °FClear.8 mph93%30.18 "Hg4 mi
4:50 AM41 °FClear.6 mph93%30.18 "Hg10 mi
3:50 AM43 °FClear.7 mph93%30.18 "Hg10 mi
3:20 AM43 °FClear.7 mph93%30.18 "Hg10 mi
2:50 AM43 °FClear.7 mph93%30.18 "Hg10 mi
2:20 AM43 °FClear.7 mph93%30.18 "Hg10 mi
1:50 AM43 °FClear.8 mph93%30.18 "Hg10 mi
1:20 AM45 °FClear.8 mph87%30.18 "Hg10 mi
12:50 AM43 °FClear.6 mph93%30.18 "Hg10 mi
12:20 AM45 °FClear.6 mph87%30.18 "Hg10 mi
11:50 PM
Oct 29
45 °FClear.7 mph93%30.18 "Hg10 mi
11:20 PM46 °FClear.9 mph87%30.18 "Hg10 mi
10:50 PM46 °FClear.8 mph87%30.18 "Hg10 mi
10:20 PM46 °FClear.8 mph87%30.18 "Hg10 mi
9:50 PM46 °FPassing clouds.6 mph87%30.15 "HgN/A
9:20 PM46 °FClear.5 mph87%30.15 "Hg10 mi
8:50 PM46 °FClear.3 mph82%30.15 "Hg10 mi
8:20 PM48 °FClear.3 mph82%30.15 "Hg10 mi
7:50 PM46 °FClear.2 mph82%30.12 "Hg10 mi
7:20 PM48 °FClear.2 mph71%30.12 "Hg10 mi
6:50 PM48 °FClear.2 mph71%30.12 "Hg10 mi
6:20 PM48 °FClear.3 mph71%30.12 "Hg10 mi
5:50 PM54 °FClear.5 mph58%30.09 "Hg10 mi
5:20 PM55 °FClear.5 mph59%30.09 "Hg10 mi
4:50 PM57 °FSunny.3 mph55%30.09 "Hg10 mi
4:20 PM57 °FPassing clouds.5 mph55%30.09 "HgN/A
Weather by CustomWeather, © 2014

See weather overviewHow to use our weather pages